Weather Roundup
Issued by NWS Corpus Christi, TX

Home | Current Version | Previous Version | Text Only | Print | Product List | Glossary On
Versions: 1 2 3 4 5 6 7 8 9 10 11 12 13 14 15 16 17 18 19 20 21 22 23 24 25 26 27 28 29 30 31 32 33 34 35 36 37 38 39 40 41 42 43 44 45 46 47 48 49 50
000
ASUS44 KCRP 170310
HRRCRP

SOUTH TEXAS REGIONAL WEATHER ROUNDUP
NATIONAL WEATHER SERVICE CORPUS CHRISTI TX
900 PM CST TUE JAN 16 2018


TXZ229>244-170400-
...CORPUS CHRISTI AREA OBSERVATIONS...

CITY           SKY/WX    TMP DP  RH WIND       PRES   REMARKS
CORPUS CHRISTI CLOUDY    30  17  58 N18       30.71R WCI  18
NAS CORPUS CHR CLOUDY    32  20  61 N21G30    30.71R WCI  20
ROCKPORT       CLOUDY    29  19  66 N20       30.71R WCI  16
KINGSVILLE ARP CLOUDY    32  20  61 N10       30.73S WCI  24
KINGSVILLE NAS CLOUDY    32  14  47 N15G23    30.72R WCI  22
ALICE          CLOUDY    31  15  52 N10       30.73R WCI  22
$$

...VICTORIA AREA OBSERVATIONS...

CITY           SKY/WX    TMP DP  RH WIND       PRES   REMARKS
PORT LAVACA    CLOUDY    27  21  77 N15       30.71R WCI  16
VICTORIA       CLOUDY    27  18  69 N12       30.72R WCI  17
BEEVILLE       CLOUDY    30  15  53 N9        30.71R
PLEASANTON     CLOUDY    32   8  36 NE9       30.73R
SAN ANTONIO    CLOUDY    28   7  41 N12       30.70R WCI  18
$$

...LAREDO AREA OBSERVATIONS...

CITY           SKY/WX    TMP DP  RH WIND       PRES   REMARKS
LAREDO         CLOUDY    33  21  61 N6        30.73R
COTULLA        CLOUDY    34   9  35 N8        30.73R
DEL RIO        CLOUDY    35   0  22 N6        30.69R
MCALLEN        CLOUDY    32  27  80 N16G28    30.74R WCI  21
HEBBRONVILLE   CLOUDY    29  26  86 N3        30.71R
$$

...OTHER TEXAS OBSERVATIONS...

CITY           SKY/WX    TMP DP  RH WIND       PRES   REMARKS
BROWNSVILLE    NOT AVBL
HOUSTON        CLOUDY    26  17  68 N14       30.71R WCI  14
COL. STATION   CLOUDY    25  10  53 N14G24    30.73R WCI  13
AUSTIN         CLOUDY    26  12  55 N13       30.73R WCI  15
WACO           CLOUDY    19   9  65 CALM      30.75R
FORT WORTH     CLEAR     23   2  40 N12       30.73R WCI  12
WICHITA FALLS  CLOUDY    14  -1  51 E6        30.74R
LUBBOCK        CLOUDY    21  -1  38 SE10      30.55S WCI  10
EL PASO        MOCLDY    32   7  35 SE8       30.44S
$$

...MARINE OBSERVATIONS...

STATION/POSITION TIME  SKY/WX   TEMP    WIND        PRES    VSBY  WAVE   SWELL
                                AIR SEA DIR/SP/G                  HT/PER HT/PER
                 (UTC)          (F)     (DEG/KT/KT) (MB)    (MI)  (FT/S) (FT/S)
PORT ARANSAS     NOT AVBL
BUOY 90 E PORT A 0250            41 71  350/ 25/ 33 1035.8R        10/ 8
BUOY 200 E PT IS 0250            60 73   20/ 25/ 33 1029.0R        10/ 9   5/ 9
BUOY 15 E GALVES 0150            31 53  360/ 23/ 27 1036.9          5/ 5
$$




USA.gov is the U.S. government's official web portal to all federal, state and local government web resources and services.